Total_Precipitation_Accumulation
0.01 0.01 0.03 0.03 0.05 0.07 0.10 0.13 0.22 0.28 0.22 0.24 0.41 0.59 0.72 0.83 1.06 1.19 1.22 1.17 1.21 1.51 1.97 2.14 2.45 2.93 3.74 4.47 5.15 5.29 5.58 5.07 4.43 3.89 3.53 3.42 3.22 2.91 2.78 2.64 2.48 2.34 2.12 2.01
0.02 0.05 0.04 0.03 0.04 0.07 0.11 0.15 0.24 0.25 0.18 0.22 0.43 0.71 0.87 0.95 0.94 1.00 1.05 1.11 1.22 1.58 2.04 2.38 2.91 3.30 3.33 3.87 4.57 4.62 4.34 4.12 3.68 3.30 3.15 2.99 2.93 2.60 2.41 2.27 2.27 2.07 1.93 1.95
0.04 0.06 0.04 0.04 0.06 0.11 0.14 0.17 0.21 0.20 0.18 0.27 0.49 0.89 1.17 1.09 0.82 0.74 0.80 0.90 1.03 1.38 1.89 2.31 2.73 3.17 3.14 3.52 3.60 3.23 3.09 3.18 3.13 2.97 2.87 2.73 2.73 2.53 2.26 2.09 2.07 1.92 1.72 1.72
0.03 0.03 0.03 0.04 0.07 0.08 0.11 0.09 0.09 0.09 0.17 0.33 0.49 1.07 1.47 1.25 0.94 0.77 0.80 0.97 1.04 1.15 1.35 1.63 1.97 2.39 2.59 2.68 2.59 2.56 2.55 2.59 2.79 2.80 2.58 2.40 2.13 2.04 1.97 1.86 1.90 1.89 1.64 1.56
0.03 0.03 0.03 0.05 0.05 0.06 0.07 0.05 0.06 0.11 0.16 0.33 0.55 0.91 1.31 1.29 1.23 1.06 0.93 0.98 0.93 0.97 1.04 1.18 1.27 1.49 1.77 2.02 2.09 2.08 2.36 2.46 2.49 2.48 2.44 2.46 2.20 2.03 1.98 2.09 2.28 2.20 1.86 1.54
0.05 0.05 0.04 0.04 0.04 0.05 0.05 0.06 0.14 0.29 0.42 0.77 0.76 0.81 1.16 1.12 1.07 1.06 0.92 0.78 0.73 0.77 0.82 0.99 1.03 1.07 1.20 1.35 1.48 1.60 1.87 2.09 2.17 2.14 2.15 2.22 2.24 2.21 2.03 1.97 2.03 1.95 1.79 1.59
0.14 0.12 0.09 0.05 0.05 0.06 0.06 0.10 0.35 0.74 1.07 1.23 0.80 0.77 0.97 0.85 0.86 0.94 0.75 0.52 0.49 0.59 0.64 0.82 0.81 0.85 0.95 0.99 1.09 1.28 1.48 1.66 1.77 1.86 1.94 2.01 2.21 2.16 1.93 1.72 1.76 1.74 1.58 1.49
0.15 0.19 0.11 0.05 0.06 0.07 0.07 0.08 0.22 0.38 0.53 0.74 0.79 1.15 1.08 0.70 0.67 0.60 0.44 0.34 0.32 0.48 0.57 0.62 0.57 0.59 0.74 0.80 0.88 1.04 1.18 1.27 1.38 1.61 1.83 1.83 1.97 1.84 1.71 1.82 1.71 1.61 1.41 1.44
0.07 0.07 0.06 0.05 0.06 0.07 0.06 0.05 0.08 0.11 0.18 0.47 0.89 1.27 1.06 0.64 0.58 0.47 0.34 0.26 0.31 0.39 0.53 0.51 0.45 0.46 0.50 0.55 0.62 0.80 1.07 1.17 1.21 1.30 1.52 1.63 1.63 1.65 1.73 1.87 1.81 1.68 1.59 1.47
0.04 0.03 0.04 0.05 0.06 0.07 0.06 0.06 0.07 0.09 0.17 0.36 0.76 1.15 1.25 1.00 0.73 0.50 0.39 0.37 0.45 0.47 0.60 0.63 0.47 0.42 0.45 0.44 0.52 0.64 0.82 1.03 1.21 1.21 1.21 1.26 1.51 1.58 1.70 1.75 1.65 1.64 1.61 1.61
0.04 0.02 0.04 0.05 0.07 0.08 0.08 0.08 0.09 0.11 0.15 0.26 0.57 0.84 0.78 0.78 0.64 0.50 0.50 0.59 0.47 0.46 0.53 0.59 0.42 0.35 0.38 0.42 0.49 0.62 0.76 1.04 1.24 1.15 1.17 1.28 1.44 1.54 1.60 1.75 1.73 1.67 1.65 1.69
0.05 0.03 0.04 0.08 0.12 0.11 0.10 0.11 0.11 0.15 0.17 0.18 0.30 0.53 0.46 0.54 0.55 0.64 0.67 0.64 0.57 0.54 0.55 0.58 0.50 0.50 0.52 0.56 0.60 0.72 0.84 1.02 1.13 1.15 1.22 1.28 1.38 1.45 1.50 1.56 1.64 1.71 1.69 1.74
0.06 0.05 0.07 0.22 0.32 0.23 0.15 0.11 0.12 0.13 0.13 0.16 0.32 0.54 0.47 0.53 0.59 0.64 0.67 0.64 0.70 0.72 0.65 0.61 0.64 0.72 0.69 0.71 0.81 0.89 0.97 1.03 1.14 1.27 1.27 1.23 1.29 1.27 1.33 1.42 1.48 1.60 1.66 1.70
0.07 0.06 0.08 0.22 0.33 0.37 0.27 0.17 0.16 0.13 0.14 0.18 0.26 0.48 0.48 0.60 0.82 0.75 0.79 0.75 0.68 0.70 0.67 0.57 0.64 0.69 0.73 0.75 0.85 0.96 1.00 1.03 1.12 1.16 1.20 1.23 1.23 1.26 1.36 1.44 1.47 1.52 1.49 1.55
0.09 0.07 0.05 0.09 0.17 0.20 0.22 0.21 0.18 0.14 0.12 0.18 0.26 0.42 0.57 0.68 0.91 0.77 0.74 0.81 0.87 0.74 0.65 0.53 0.55 0.63 0.73 0.79 0.80 0.85 0.94 1.02 1.17 1.18 1.15 1.20 1.27 1.29 1.33 1.34 1.34 1.37 1.43 1.45
0.15 0.11 0.10 0.11 0.14 0.14 0.16 0.18 0.16 0.12 0.10 0.10 0.20 0.42 0.62 0.71 0.78 0.74 0.61 0.63 0.83 0.73 0.62 0.60 0.66 0.73 0.73 0.72 0.72 0.75 0.76 0.87 1.05 1.16 1.25 1.32 1.31 1.24 1.29 1.30 1.28 1.31 1.42 1.52
0.28 0.22 0.21 0.21 0.17 0.19 0.26 0.21 0.18 0.15 0.13 0.14 0.26 0.42 0.59 0.72 0.65 0.70 0.64 0.58 0.60 0.58 0.55 0.63 0.70 0.74 0.74 0.73 0.69 0.69 0.70 0.81 1.09 1.18 1.21 1.36 1.44 1.35 1.40 1.43 1.43 1.44 1.47 1.59
0.38 0.39 0.32 0.28 0.31 0.38 0.30 0.25 0.23 0.26 0.27 0.25 0.28 0.40 0.62 0.80 0.72 0.67 0.68 0.68 0.61 0.49 0.53 0.62 0.64 0.65 0.68 0.70 0.72 0.71 0.73 0.80 1.04 1.21 1.29 1.52 1.67 1.57 1.58 1.59 1.62 1.67 1.73 1.76
0.39 0.47 0.47 0.42 0.44 0.47 0.40 0.37 0.38 0.47 0.57 0.48 0.49 0.62 0.68 0.67 0.69 0.75 0.71 0.65 0.60 0.58 0.62 0.64 0.68 0.71 0.77 0.85 0.87 0.87 0.96 1.06 1.20 1.33 1.47 1.70 1.90 1.95 1.92 1.85 1.94 2.01 2.00 1.98
0.35 0.46 0.56 0.58 0.64 0.73 0.68 0.55 0.50 0.64 1.03 0.84 0.68 0.71 0.72 0.73 0.91 0.93 0.68 0.60 0.57 0.60 0.67 0.79 0.90 0.90 0.94 1.01 1.00 1.04 1.15 1.35 1.49 1.53 1.56 1.71 1.90 1.97 1.95 1.95 2.14 2.27 2.23 2.16
0.54 0.56 0.58 0.65 0.75 0.76 0.68 0.60 0.64 1.13 1.50 1.07 0.92 0.93 0.97 0.97 0.93 0.81 0.74 0.74 0.66 0.63 0.71 0.77 0.80 0.93 1.05 1.14 1.20 1.32 1.36 1.44 1.49 1.53 1.57 1.69 1.90 2.18 2.13 2.15 2.24 2.32 2.33 2.34
0.74 0.74 0.72 0.78 1.01 1.14 0.74 0.65 1.02 1.38 1.26 1.30 1.26 1.24 1.19 1.04 0.86 0.75 0.75 0.79 0.71 0.68 0.76 0.76 0.76 0.87 1.05 1.25 1.43 1.49 1.47 1.50 1.60 1.61 1.60 1.69 1.94 2.05 2.10 2.23 2.27 2.36 2.45 2.43
0.85 0.95 0.94 1.03 1.25 1.15 0.91 0.98 1.03 1.12 1.24 1.29 1.22 1.23 1.20 1.14 1.02 0.91 0.87 0.83 0.80 0.86 0.85 0.86 0.87 0.94 1.06 1.23 1.44 1.60 1.62 1.62 1.58 1.55 1.52 1.61 1.76 1.86 2.00 2.09 2.02 2.07 2.18 2.17
0.99 0.88 1.10 1.44 1.43 1.26 1.10 1.00 1.02 1.00 1.06 1.06 1.02 0.98 0.97 0.96 0.94 0.91 0.92 0.95 0.98 1.04 1.01 1.01 1.05 1.08 1.13 1.21 1.38 1.54 1.54 1.57 1.56 1.48 1.43 1.54 1.75 1.86 1.93 1.99 1.97 2.02 2.08 2.13
1.27 1.19 1.41 1.81 1.77 1.56 1.45 1.25 1.20 1.07 1.05 1.04 0.98 0.95 0.90 0.81 0.81 0.82 0.79 0.82 0.89 0.98 1.02 1.02 1.06 1.11 1.11 1.16 1.36 1.50 1.51 1.56 1.62 1.58 1.53 1.61 1.73 1.82 1.96 2.02 2.05 2.05 2.05 2.02
1.21 1.43 1.71 1.95 1.77 1.64 1.63 1.33 1.27 1.33 1.21 1.09 1.07 1.03 0.95 0.82 0.78 0.78 0.76 0.76 0.80 0.90 1.03 1.06 1.13 1.15 1.12 1.16 1.28 1.40 1.56 1.71 1.75 1.69 1.65 1.61 1.59 1.67 1.74 1.79 1.74 1.68 1.63 1.61